Meteo pe oră la Abja-Paluoja

Astăzi, 27 Iulie, Marţi

Timp Temperatura Precipitaţii Vânt Presiune Umiditate
00:00 +18°C° 0 mm 2 m/s 756 mmHg 67%
01:00 +18°C° 0 mm 2 m/s 756 mmHg 68%
02:00 +17°C° 0 mm 2 m/s 756 mmHg 68%
03:00 +17°C° 0 mm 2 m/s 756 mmHg 69%
04:00 +17°C° 0 mm 2 m/s 756 mmHg 70%
05:00 +17°C° 0 mm 2 m/s 755 mmHg 71%
06:00 +19°C° 0 mm 2 m/s 755 mmHg 66%
07:00 +21°C° 0 mm 3 m/s 755 mmHg 61%
08:00 +24°C° 0 mm 3 m/s 755 mmHg 55%
09:00 +26°C° 0 mm 3 m/s 755 mmHg 50%
10:00 +27°C° 0 mm 4 m/s 754 mmHg 46%
11:00 +29°C° 0 mm 4 m/s 754 mmHg 41%
12:00 +30°C° 0 mm 4 m/s 754 mmHg 39%
13:00 +32°C° 0 mm 4 m/s 753 mmHg 37%
14:00 +33°C° 0 mm 4 m/s 753 mmHg 35%
15:00 +29°C° 0 mm 4 m/s 752 mmHg 44%
16:00 +27°C° 0 mm 3 m/s 752 mmHg 53%
17:00 +25°C° 0 mm 3 m/s 752 mmHg 63%
18:00 +24°C° 0.3 mm 3 m/s 752 mmHg 71%
19:00 +22°C° 0.3 mm 3 m/s 752 mmHg 79%
20:00 +21°C° 0.3 mm 3 m/s 751 mmHg 87%
21:00 +20°C° 0.3 mm 3 m/s 751 mmHg 90%
22:00 +19°C° 0.3 mm 3 m/s 751 mmHg 93%
23:00 +19°C° 0.3 mm 3 m/s 751 mmHg 97%

Mâine, 28 Iulie, Miercuri

Timp Temperatura Precipitaţii Vânt Presiune Umiditate
00:00 +19°C° 0.4 mm 3 m/s 750 mmHg 97%
01:00 +19°C° 0.4 mm 3 m/s 750 mmHg 97%
02:00 +19°C° 0.4 mm 3 m/s 750 mmHg 98%
03:00 +19°C° 0.1 mm 3 m/s 749 mmHg 98%
04:00 +19°C° 0.1 mm 2 m/s 749 mmHg 98%
05:00 +19°C° 0.1 mm 2 m/s 749 mmHg 98%
06:00 +19°C° 0 mm 3 m/s 749 mmHg 97%
07:00 +20°C° 0 mm 3 m/s 748 mmHg 95%
08:00 +20°C° 0 mm 3 m/s 748 mmHg 93%
09:00 +21°C° 0.1 mm 3 m/s 748 mmHg 86%
10:00 +22°C° 0.1 mm 4 m/s 748 mmHg 80%
11:00 +23°C° 0.1 mm 4 m/s 748 mmHg 73%
12:00 +26°C° 0 mm 4 m/s 748 mmHg 65%
13:00 +27°C° 0 mm 5 m/s 748 mmHg 57%
14:00 +28°C° 0 mm 6 m/s 748 mmHg 48%
15:00 +28°C° 0 mm 5 m/s 748 mmHg 50%
16:00 +28°C° 0 mm 5 m/s 748 mmHg 51%
17:00 +27°C° 0 mm 5 m/s 748 mmHg 52%
18:00 +26°C° 0 mm 5 m/s 748 mmHg 60%
19:00 +23°C° 0 mm 4 m/s 747 mmHg 67%
20:00 +22°C° 0 mm 4 m/s 747 mmHg 75%
21:00 +21°C° 0 mm 3 m/s 747 mmHg 81%
22:00 +20°C° 0 mm 3 m/s 747 mmHg 87%
23:00 +19°C° 0 mm 3 m/s 748 mmHg 93%

Poimâine, 29 Iulie, Joi

Timp Temperatura Precipitaţii Vânt Presiune Umiditate
00:00 +18°C° 0 mm 3 m/s 747 mmHg 94%
01:00 +18°C° 0 mm 3 m/s 747 mmHg 95%
02:00 +18°C° 0 mm 3 m/s 747 mmHg 96%
03:00 +18°C° 0 mm 3 m/s 747 mmHg 96%
04:00 +18°C° 0 mm 3 m/s 747 mmHg 96%
05:00 +18°C° 0 mm 3 m/s 747 mmHg 97%
06:00 +19°C° 0.1 mm 3 m/s 747 mmHg 90%
07:00 +20°C° 0.1 mm 3 m/s 747 mmHg 83%
08:00 +22°C° 0.1 mm 4 m/s 747 mmHg 76%
09:00 +22°C° 0.4 mm 4 m/s 747 mmHg 77%
10:00 +22°C° 0.4 mm 5 m/s 747 mmHg 78%
11:00 +22°C° 0.4 mm 5 m/s 747 mmHg 79%
12:00 +23°C° 0.1 mm 5 m/s 747 mmHg 70%
13:00 +24°C° 0.1 mm 6 m/s 747 mmHg 61%
14:00 +26°C° 0.1 mm 6 m/s 747 mmHg 52%
15:00 +26°C° 0 mm 5 m/s 747 mmHg 52%
16:00 +25°C° 0 mm 5 m/s 747 mmHg 52%
17:00 +25°C° 0 mm 5 m/s 747 mmHg 52%
18:00 +23°C° 0 mm 4 m/s 747 mmHg 60%
19:00 +21°C° 0 mm 3 m/s 747 mmHg 68%
20:00 +20°C° 0 mm 2 m/s 747 mmHg 76%
21:00 +19°C° 0 mm 2 m/s 747 mmHg 81%
22:00 +18°C° 0 mm 2 m/s 747 mmHg 87%
23:00 +17°C° 0 mm 2 m/s 747 mmHg 93%

30 Iulie, Vineri

Timp Temperatura Precipitaţii Vânt Presiune Umiditate
00:00 +17°C° 0 mm 2 m/s 747 mmHg 93%
01:00 +16°C° 0 mm 2 m/s 746 mmHg 93%
02:00 +16°C° 0 mm 3 m/s 746 mmHg 94%
03:00 +16°C° 0 mm 3 m/s 746 mmHg 93%
04:00 +16°C° 0 mm 3 m/s 746 mmHg 92%
05:00 +16°C° 0 mm 3 m/s 746 mmHg 91%
06:00 +17°C° 0 mm 4 m/s 746 mmHg 80%
07:00 +19°C° 0 mm 4 m/s 746 mmHg 69%
08:00 +20°C° 0 mm 5 m/s 746 mmHg 58%
09:00 +21°C° 0 mm 5 m/s 746 mmHg 54%
10:00 +22°C° 0 mm 5 m/s 746 mmHg 50%
11:00 +23°C° 0 mm 6 m/s 746 mmHg 45%
12:00 +23°C° 0.1 mm 6 m/s 746 mmHg 42%
13:00 +24°C° 0.1 mm 6 m/s 745 mmHg 39%
14:00 +26°C° 0.1 mm 6 m/s 745 mmHg 36%
15:00 +25°C° 0 mm 5 m/s 745 mmHg 39%
16:00 +23°C° 0 mm 4 m/s 744 mmHg 42%
17:00 +24°C° 0 mm 3 m/s 744 mmHg 45%
18:00 +21°C° 0 mm 3 m/s 744 mmHg 51%
19:00 +20°C° 0 mm 2 m/s 744 mmHg 57%
20:00 +19°C° 0 mm 2 m/s 743 mmHg 63%
21:00 +18°C° 0 mm 2 m/s 743 mmHg 68%
22:00 +17°C° 0 mm 3 m/s 743 mmHg 74%
23:00 +16°C° 0 mm 3 m/s 743 mmHg 79%

31 Iulie, Sâmbătă

Timp Temperatura Precipitaţii Vânt Presiune Umiditate
00:00 +15°C° 0.1 mm 4 m/s 742 mmHg 79%
01:00 +15°C° 0.1 mm 4 m/s 742 mmHg 79%
02:00 +15°C° 0.1 mm 5 m/s 741 mmHg 79%
03:00 +15°C° 0.2 mm 5 m/s 741 mmHg 83%
04:00 +15°C° 0.2 mm 6 m/s 741 mmHg 86%
05:00 +15°C° 0.2 mm 6 m/s 740 mmHg 89%
06:00 +15°C° 0.8 mm 6 m/s 740 mmHg 90%
07:00 +16°C° 0.8 mm 6 m/s 740 mmHg 91%
08:00 +16°C° 0.8 mm 6 m/s 740 mmHg 92%
09:00 +16°C° 0.9 mm 6 m/s 740 mmHg 90%
10:00 +17°C° 0.9 mm 6 m/s 740 mmHg 89%
11:00 +19°C° 0.9 mm 6 m/s 741 mmHg 88%
12:00 +19°C° 0.6 mm 6 m/s 741 mmHg 87%
13:00 +19°C° 0.6 mm 6 m/s 741 mmHg 87%
14:00 +19°C° 0.6 mm 6 m/s 741 mmHg 86%
15:00 +19°C° 0.6 mm 6 m/s 741 mmHg 85%
16:00 +19°C° 0.6 mm 5 m/s 742 mmHg 85%
17:00 +19°C° 0.6 mm 5 m/s 742 mmHg 85%
18:00 +19°C° 0.6 mm 5 m/s 742 mmHg 87%
19:00 +18°C° 0.6 mm 4 m/s 742 mmHg 90%
20:00 +17°C° 0.6 mm 4 m/s 742 mmHg 93%
21:00 +17°C° 0.6 mm 3 m/s 743 mmHg 94%
22:00 +16°C° 0.6 mm 3 m/s 743 mmHg 96%
23:00 +16°C° 0.6 mm 3 m/s 743 mmHg 97%

1 August, Duminică

Timp Temperatura Precipitaţii Vânt Presiune Umiditate
00:00 +16°C° 0.6 mm 3 m/s 743 mmHg 97%
01:00 +16°C° 0.6 mm 3 m/s 743 mmHg 97%
02:00 +14°C° 0.6 mm 3 m/s 743 mmHg 97%
03:00 +14°C° 0.3 mm 3 m/s 744 mmHg 97%
04:00 +14°C° 0.3 mm 3 m/s 744 mmHg 97%
05:00 +14°C° 0.3 mm 3 m/s 744 mmHg 97%
06:00 +16°C° 0.1 mm 3 m/s 744 mmHg 94%
07:00 +17°C° 0.1 mm 3 m/s 745 mmHg 92%
08:00 +18°C° 0.1 mm 4 m/s 745 mmHg 89%
09:00 +19°C° 0.5 mm 4 m/s 745 mmHg 86%
10:00 +20°C° 0.5 mm 4 m/s 746 mmHg 83%
11:00 +21°C° 0.5 mm 4 m/s 746 mmHg 80%
12:00 +21°C° 0.5 mm 4 m/s 746 mmHg 77%
13:00 +21°C° 0.5 mm 4 m/s 747 mmHg 74%
14:00 +22°C° 0.5 mm 5 m/s 747 mmHg 71%
15:00 +22°C° 0.1 mm 4 m/s 747 mmHg 67%
16:00 +22°C° 0.1 mm 4 m/s 747 mmHg 63%
17:00 +22°C° 0.1 mm 3 m/s 747 mmHg 59%
18:00 +21°C° 0 mm 2 m/s 747 mmHg 66%
19:00 +19°C° 0 mm 2 m/s 747 mmHg 73%
20:00 +19°C° 0 mm 1 m/s 747 mmHg 81%
21:00 +18°C° 0 mm 1 m/s 747 mmHg 82%
22:00 +18°C° 0 mm 1 m/s 747 mmHg 84%
23:00 +16°C° 0 mm 1 m/s 747 mmHg 86%
Arată mai mult

Formular de consimțământ

Meteoprog și furnizorii noștri de servicii pot stoca și accesa date personale, precum cookies, identificatori de dispozitiv sau alte tehnologii similare pe dispozitivul dumneavoastră și procesa astfel de date pentru a personaliza conținutul și reclamele, dar și pentru a oferi caracteristici de social media și pentru a analiza traficul.

  • Stocarea și/sau accesarea informațiilor pe dispozitivul dumneavoastră

    Cookies, identificatori de dispozitiv sau alte informații pot fi stocate sau accesate pe dispozitiv în scopurile indicate mai sus.

  • Reclame și conținut personalizat, evaluarea reclamelor și a conținutului, informații despre audiențe și dezvoltarea produselor

    Reclamele și conținutul pot fi personalizate pe baza unui profil. Pot fi adăugate date suplimentare pentru a personaliza mai bine reclamele și conținutul. Performanța reclamelor și conținutului poate fi măsurată. Pot fi obținute informații despre utilizatorii care au văzut reclamele și conținutul. Aceste date pot fi utilizate pentru a dezvolta sau îmbunătăți experiența utilizatorilor, sistemele și software-ul.

Dând clic pe ‘Sunt de acord’, permiteți utilizarea cookie-urilor menționate, a identificatorilor de dispozitiv, balizelor web sau altor tehnologii similare. Setările pot fi modificate din browser-ul dispozitivului dumneavoastră.

În anumite scopuri, interesele legitime pot prima asupra consimțământului. Puteți citi mai multe informații în acest sens în Politica privind Confidențialitatea Datelor și Cookie.